DLH414 EDDM-KIAD

Flight info

Callsign DLH414
Flight time N/A
Altitude 36000
Route GIVMI6E GIVMI Y101 INBED DCT REKDI DCT LOHRE DCT ADKUV DCT LENDO DCT DENUT L610 LAM L179 UGBET Q60 OKSAW DCT FELCA DCT OFSOX DCT SLANY DCT MALOT/M084F380 NATD RIKAL/N0485F380 N572A TOPPS DCT KAYCC DCT KYLOH DCT BAF HYPER9
Aircraft A388/J-SADE2E3FGHIJ3J4J5M1RWXY/LB1D1

Departure

Time N/A
Airport Munich Airport (EDDM)

Arrival

Time 2026-05-04 20:40
Airport Washington Dulles International Airport (KIAD)
Time Latitude Longitude Altitude Speed Heading
2026-05-04 19:08 44.72281 -68.74475 37766 ft 434 kts 235°
2026-05-04 19:08 44.70455 -68.77862 37767 ft 443 kts 235°
2026-05-04 19:08 44.66647 -68.84909 37766 ft 457 kts 235°
2026-05-04 19:09 44.62834 -68.91939 37764 ft 450 kts 235°
2026-05-04 19:09 44.59037 -68.98933 37750 ft 453 kts 235°
2026-05-04 19:10 44.55210 -69.05964 37753 ft 452 kts 235°
2026-05-04 19:10 44.51409 -69.12929 37753 ft 452 kts 235°
2026-05-04 19:11 44.47584 -69.19921 37773 ft 452 kts 235°
2026-05-04 19:11 44.43751 -69.26911 37769 ft 451 kts 235°
2026-05-04 19:12 44.38020 -69.37333 37764 ft 451 kts 235°
2026-05-04 19:13 44.34174 -69.44303 37763 ft 451 kts 235°
2026-05-04 19:13 44.30358 -69.51204 37773 ft 451 kts 235°
2026-05-04 19:14 44.26492 -69.58179 37781 ft 451 kts 235°
2026-05-04 19:14 44.22654 -69.65086 37779 ft 451 kts 235°
2026-05-04 19:15 44.18816 -69.71978 37782 ft 451 kts 235°
2026-05-04 19:15 44.14971 -69.78864 37782 ft 451 kts 235°
2026-05-04 19:16 44.11107 -69.85769 37794 ft 451 kts 235°
2026-05-04 19:16 44.07255 -69.92636 37798 ft 451 kts 235°
2026-05-04 19:17 44.03374 -69.99538 37801 ft 452 kts 235°
2026-05-04 19:17 43.99510 -70.06394 37804 ft 452 kts 235°
2026-05-04 19:18 43.95617 -70.13284 37778 ft 452 kts 235°
2026-05-04 19:18 43.91742 -70.20127 37780 ft 453 kts 235°
2026-05-04 19:19 43.87851 -70.26983 37784 ft 453 kts 235°
2026-05-04 19:19 43.83955 -70.33831 37777 ft 453 kts 235°
2026-05-04 19:20 43.80027 -70.40718 37782 ft 454 kts 234°
2026-05-04 19:20 43.76115 -70.47560 37783 ft 454 kts 234°
2026-05-04 19:21 43.72202 -70.54389 37782 ft 454 kts 234°
2026-05-04 19:21 43.68269 -70.61237 37783 ft 454 kts 234°
2026-05-04 19:22 43.64337 -70.68066 37782 ft 454 kts 234°
2026-05-04 19:22 43.60415 -70.74862 37799 ft 454 kts 234°
2026-05-04 19:23 43.56373 -70.81620 37796 ft 456 kts 230°
2026-05-04 19:23 43.51630 -70.87459 37788 ft 462 kts 220°
2026-05-04 19:24 43.46160 -70.92146 37787 ft 466 kts 213°
2026-05-04 19:24 43.40525 -70.96521 37787 ft 465 kts 214°
2026-05-04 19:25 43.34893 -71.00920 37789 ft 465 kts 214°
2026-05-04 19:25 43.29265 -71.05299 37788 ft 465 kts 214°
2026-05-04 19:26 43.23611 -71.09687 37789 ft 465 kts 214°
2026-05-04 19:26 43.17994 -71.14035 37785 ft 465 kts 214°
2026-05-04 19:27 43.12371 -71.18380 37794 ft 465 kts 214°
2026-05-04 19:27 43.07034 -71.23353 37786 ft 459 kts 224°
2026-05-04 19:28 43.02562 -71.29436 37781 ft 454 kts 234°
2026-05-04 19:28 42.99016 -71.36504 37781 ft 449 kts 244°
2026-05-04 19:29 42.96530 -71.44272 37799 ft 446 kts 254°
2026-05-04 19:29 42.95167 -71.52538 37789 ft 445 kts 264°
2026-05-04 19:30 42.94981 -71.60918 37797 ft 444 kts 274°
2026-05-04 19:30 42.95974 -71.69267 37812 ft 444 kts 284°
2026-05-04 19:31 42.98099 -71.77164 37836 ft 446 kts 294°
2026-05-04 19:31 43.01301 -71.84431 37834 ft 449 kts 304°
2026-05-04 19:32 43.05495 -71.90827 37830 ft 453 kts 314°
2026-05-04 19:32 43.10519 -71.96081 37821 ft 459 kts 324°
2026-05-04 19:33 43.16221 -72.00029 37822 ft 465 kts 334°
2026-05-04 19:33 43.22459 -72.02541 37809 ft 471 kts 344°
2026-05-04 19:34 43.29054 -72.03495 37800 ft 479 kts 354°
2026-05-04 19:34 43.35730 -72.02822 37801 ft 486 kts
2026-05-04 19:35 43.42320 -72.00523 37797 ft 494 kts 15°
2026-05-04 19:35 43.48639 -71.96616 37792 ft 500 kts 25°
2026-05-04 19:36 43.54501 -71.91376 37787 ft 502 kts 28°
2026-05-04 19:36 43.57272 -71.88484 37782 ft 508 kts 39°
2026-05-04 19:36 43.59663 -71.84840 37779 ft 514 kts 51°
2026-05-04 19:36 43.61518 -71.80652 37781 ft 518 kts 62°
2026-05-04 19:37 43.62801 -71.76000 37776 ft 522 kts 73°
2026-05-04 19:37 43.63451 -71.71030 37778 ft 525 kts 85°
2026-05-04 19:37 43.63431 -71.65994 37773 ft 525 kts 96°
2026-05-04 19:37 43.62752 -71.61043 37774 ft 525 kts 108°
2026-05-04 19:38 43.61426 -71.56341 37769 ft 522 kts 119°
2026-05-04 19:38 43.59538 -71.52143 37771 ft 519 kts 130°
2026-05-04 19:38 43.57113 -71.48481 37774 ft 514 kts 142°
2026-05-04 19:38 43.54262 -71.45536 37770 ft 508 kts 153°
2026-05-04 19:39 43.51095 -71.43413 37769 ft 501 kts 165°
2026-05-04 19:39 43.47782 -71.42191 37771 ft 493 kts 176°
2026-05-04 19:39 43.44369 -71.41875 37772 ft 485 kts 187°
2026-05-04 19:39 43.41070 -71.42472 37772 ft 477 kts 199°
2026-05-04 19:40 43.37951 -71.43950 37775 ft 469 kts 210°
2026-05-04 19:40 43.35202 -71.46195 37781 ft 461 kts 221°
2026-05-04 19:40 43.32736 -71.48990 37783 ft 459 kts 225°
2026-05-04 19:41 43.27890 -71.54743 37786 ft 460 kts 224°
2026-05-04 19:41 43.22910 -71.60231 37787 ft 461 kts 222°
2026-05-04 19:42 43.17856 -71.65626 37791 ft 462 kts 222°
2026-05-04 19:42 43.12760 -71.71041 37807 ft 462 kts 222°
2026-05-04 19:43 43.07673 -71.76439 37812 ft 463 kts 222°
2026-05-04 19:43 43.02570 -71.81845 37829 ft 463 kts 222°
2026-05-04 19:44 42.97502 -71.87201 37831 ft 463 kts 222°
2026-05-04 19:44 42.92378 -71.92606 37838 ft 464 kts 222°
2026-05-04 19:45 42.87274 -71.97978 37835 ft 464 kts 222°
2026-05-04 19:45 42.82174 -72.03335 37838 ft 464 kts 222°
2026-05-04 19:46 42.77069 -72.08684 37839 ft 464 kts 222°
2026-05-04 19:46 42.71938 -72.14049 37836 ft 464 kts 222°
2026-05-04 19:47 42.66832 -72.19377 37841 ft 464 kts 222°
2026-05-04 19:47 42.62530 -72.23858 37846 ft 465 kts 222°
2026-05-04 19:48 42.57409 -72.29181 37848 ft 465 kts 222°
2026-05-04 19:48 42.52291 -72.34490 37844 ft 465 kts 222°
2026-05-04 19:49 42.47124 -72.39837 37837 ft 465 kts 221°
2026-05-04 19:49 42.41994 -72.45136 37835 ft 465 kts 221°
2026-05-04 19:50 42.36830 -72.50458 37834 ft 466 kts 221°
2026-05-04 19:50 42.31680 -72.55754 37814 ft 466 kts 221°
2026-05-04 19:51 42.26536 -72.61033 37822 ft 466 kts 221°
2026-05-04 19:51 42.21385 -72.66308 37833 ft 466 kts 221°
2026-05-04 19:52 42.16410 -72.71838 37819 ft 461 kts 229°
2026-05-04 19:52 42.12226 -72.78350 37841 ft 457 kts 236°
2026-05-04 19:53 42.08329 -72.85081 37843 ft 457 kts 236°
2026-05-04 19:53 42.04384 -72.91817 37846 ft 457 kts 236°
2026-05-04 19:54 42.00450 -72.98515 37858 ft 458 kts 236°
2026-05-04 19:54 41.96492 -73.05240 37855 ft 458 kts 236°
2026-05-04 19:55 41.92545 -73.11927 37861 ft 458 kts 236°
2026-05-04 19:55 41.88574 -73.18634 37865 ft 458 kts 236°
2026-05-04 19:56 41.84614 -73.25307 37871 ft 458 kts 236°
2026-05-04 19:56 41.80634 -73.32001 37868 ft 458 kts 236°
2026-05-04 19:57 41.76651 -73.38693 37873 ft 458 kts 236°
2026-05-04 19:57 41.72672 -73.45370 37871 ft 459 kts 236°
2026-05-04 19:58 41.68697 -73.52023 37880 ft 458 kts 236°
2026-05-04 19:58 41.64708 -73.58684 37869 ft 459 kts 235°
2026-05-04 19:59 41.60704 -73.65355 37863 ft 459 kts 235°
2026-05-04 19:59 41.56718 -73.71985 37763 ft 461 kts 235°
2026-05-04 19:59 41.54696 -73.75342 37476 ft 461 kts 236°
2026-05-04 20:00 41.52715 -73.78625 37181 ft 459 kts 236°
2026-05-04 20:00 41.50655 -73.81913 36887 ft 461 kts 232°
2026-05-04 20:00 41.48410 -73.84992 36595 ft 464 kts 230°
2026-05-04 20:00 41.46127 -73.88045 36310 ft 465 kts 230°
2026-05-04 20:01 41.43833 -73.91131 36051 ft 466 kts 231°
2026-05-04 20:01 41.41565 -73.94186 35881 ft 466 kts 231°
2026-05-04 20:01 41.39280 -73.97264 35875 ft 467 kts 231°
2026-05-04 20:02 41.34706 -74.03415 35860 ft 469 kts 230°
2026-05-04 20:02 41.30103 -74.09586 35866 ft 469 kts 230°
2026-05-04 20:03 41.25509 -74.15732 35873 ft 469 kts 230°
2026-05-04 20:03 41.20938 -74.21863 35882 ft 467 kts 232°
2026-05-04 20:04 41.17019 -74.28686 35887 ft 459 kts 243°
2026-05-04 20:04 41.13755 -74.35907 35880 ft 459 kts 244°
2026-05-04 20:05 41.10413 -74.43175 35875 ft 459 kts 243°
2026-05-04 20:05 41.07083 -74.50376 35874 ft 459 kts 243°
2026-05-04 20:06 41.03733 -74.57604 35871 ft 460 kts 243°
2026-05-04 20:06 41.00381 -74.64822 35875 ft 461 kts 243°
2026-05-04 20:07 40.97026 -74.72026 35881 ft 461 kts 243°
2026-05-04 20:07 40.93655 -74.79249 35887 ft 462 kts 243°
2026-05-04 20:08 40.90261 -74.86507 35895 ft 463 kts 243°
2026-05-04 20:08 40.86874 -74.93720 35894 ft 463 kts 243°
2026-05-04 20:09 40.83475 -75.00944 35899 ft 464 kts 243°
2026-05-04 20:09 40.80050 -75.08210 35898 ft 465 kts 243°
2026-05-04 20:10 40.76636 -75.15430 35901 ft 465 kts 243°
2026-05-04 20:10 40.73193 -75.22698 35899 ft 466 kts 243°
2026-05-04 20:11 40.69755 -75.29937 35892 ft 466 kts 243°
2026-05-04 20:11 40.66307 -75.37179 35891 ft 467 kts 242°
2026-05-04 20:12 40.63020 -75.44518 35890 ft 465 kts 245°
2026-05-04 20:12 40.59894 -75.51943 35909 ft 465 kts 245°
2026-05-04 20:13 40.56712 -75.59368 35905 ft 466 kts 245°
2026-05-04 20:13 40.53514 -75.66759 35907 ft 466 kts 245°
2026-05-04 20:14 40.50289 -75.74187 35892 ft 466 kts 245°
2026-05-04 20:14 40.48693 -75.77852 35634 ft 457 kts 245°
2026-05-04 20:14 40.47113 -75.81473 35182 ft 452 kts 245°
2026-05-04 20:14 40.45571 -75.84992 34743 ft 448 kts 244°
2026-05-04 20:15 40.43821 -75.88385 34302 ft 448 kts 237°
2026-05-04 20:15 40.41791 -75.91509 33874 ft 449 kts 231°
2026-05-04 20:15 40.39578 -75.94327 33376 ft 447 kts 229°
2026-05-04 20:15 40.37334 -75.97141 32874 ft 442 kts 229°
2026-05-04 20:16 40.35116 -75.99951 32391 ft 438 kts 229°
2026-05-04 20:16 40.32971 -76.02673 31927 ft 435 kts 229°
2026-05-04 20:16 40.30785 -76.05447 31438 ft 431 kts 229°
2026-05-04 20:16 40.28629 -76.08177 30933 ft 430 kts 229°
2026-05-04 20:17 40.26502 -76.10868 30439 ft 429 kts 229°
2026-05-04 20:17 40.24356 -76.13576 29938 ft 426 kts 229°
2026-05-04 20:17 40.22225 -76.16261 29372 ft 422 kts 229°
2026-05-04 20:17 40.20131 -76.18897 28800 ft 419 kts 229°
2026-05-04 20:18 40.18029 -76.21541 28249 ft 415 kts 229°
2026-05-04 20:18 40.15968 -76.24132 27698 ft 411 kts 229°
2026-05-04 20:18 40.13913 -76.26715 27182 ft 407 kts 230°
2026-05-04 20:18 40.12015 -76.29462 26646 ft 399 kts 237°
2026-05-04 20:19 40.10455 -76.32382 26175 ft 391 kts 243°
2026-05-04 20:19 40.09084 -76.35428 25750 ft 385 kts 244°
2026-05-04 20:19 40.07732 -76.38387 25330 ft 382 kts 244°
2026-05-04 20:19 40.06359 -76.41362 24909 ft 379 kts 244°
2026-05-04 20:20 40.04994 -76.44311 24487 ft 377 kts 244°
2026-05-04 20:20 40.03638 -76.47236 24094 ft 375 kts 244°
2026-05-04 20:20 40.02308 -76.50108 23701 ft 372 kts 244°
2026-05-04 20:20 40.00965 -76.53004 23272 ft 369 kts 244°
2026-05-04 20:21 39.99648 -76.55839 22802 ft 367 kts 242°
2026-05-04 20:21 39.98077 -76.58486 22324 ft 367 kts 237°
2026-05-04 20:21 39.95384 -76.64029 21154 ft 363 kts 238°
2026-05-04 20:22 39.93880 -76.66644 20715 ft 364 kts 237°
2026-05-04 20:22 39.92336 -76.69319 20335 ft 369 kts 237°
2026-05-04 20:22 39.90783 -76.71940 19962 ft 367 kts 236°
2026-05-04 20:22 39.89198 -76.74558 19593 ft 365 kts 235°
2026-05-04 20:23 39.87620 -76.77137 19220 ft 362 kts 235°
2026-05-04 20:23 39.86067 -76.79666 18861 ft 360 kts 235°
2026-05-04 20:23 39.84500 -76.82207 18500 ft 357 kts 234°
2026-05-04 20:23 39.82937 -76.84741 18120 ft 356 kts 234°
2026-05-04 20:24 39.81395 -76.87242 17736 ft 354 kts 234°
2026-05-04 20:24 39.79877 -76.89703 17344 ft 351 kts 234°
2026-05-04 20:24 39.78346 -76.92182 16956 ft 349 kts 234°
2026-05-04 20:24 39.76826 -76.94643 16555 ft 347 kts 234°
2026-05-04 20:25 39.75325 -76.97070 16194 ft 345 kts 234°
2026-05-04 20:25 39.73816 -76.99508 15813 ft 343 kts 234°
2026-05-04 20:25 39.72328 -77.01906 15435 ft 341 kts 234°
2026-05-04 20:25 39.70837 -77.04309 15073 ft 340 kts 234°
2026-05-04 20:26 39.69358 -77.06696 14704 ft 338 kts 234°
2026-05-04 20:26 39.67906 -77.09036 14351 ft 335 kts 234°
2026-05-04 20:26 39.66448 -77.11385 13990 ft 333 kts 234°
2026-05-04 20:26 39.64990 -77.13730 13621 ft 331 kts 234°
2026-05-04 20:27 39.63547 -77.16048 13210 ft 329 kts 234°
2026-05-04 20:27 39.62101 -77.18370 12807 ft 327 kts 234°
2026-05-04 20:27 39.60692 -77.20632 12421 ft 324 kts 234°
2026-05-04 20:27 39.59276 -77.22904 12047 ft 321 kts 234°
2026-05-04 20:28 39.57881 -77.25139 11678 ft 314 kts 234°
2026-05-04 20:28 39.56536 -77.27293 11300 ft 308 kts 234°
2026-05-04 20:28 39.55192 -77.29443 10921 ft 302 kts 234°
2026-05-04 20:28 39.53882 -77.31537 10555 ft 298 kts 233°
2026-05-04 20:29 39.52583 -77.33618 10183 ft 294 kts 233°
2026-05-04 20:29 39.51312 -77.35650 10018 ft 283 kts 233°
2026-05-04 20:29 39.50112 -77.37563 9998 ft 268 kts 233°
2026-05-04 20:29 39.48965 -77.39387 9987 ft 254 kts 233°
2026-05-04 20:30 39.48238 -77.40543 9990 ft 245 kts 233°
2026-05-04 20:30 39.46834 -77.42787 9913 ft 240 kts 233°
2026-05-04 20:30 39.46102 -77.43927 9696 ft 244 kts 229°
2026-05-04 20:30 39.44671 -77.45119 9245 ft 255 kts 201°
2026-05-04 20:31 39.42881 -77.45333 9049 ft 258 kts 183°
2026-05-04 20:31 39.41121 -77.45286 8962 ft 252 kts 185°
2026-05-04 20:31 39.39388 -77.45291 8725 ft 245 kts 185°
2026-05-04 20:31 39.37679 -77.45319 8329 ft 246 kts 185°
2026-05-04 20:32 39.35993 -77.45354 7965 ft 246 kts 185°
2026-05-04 20:32 39.34274 -77.45389 7617 ft 245 kts 185°
2026-05-04 20:32 39.32559 -77.45422 7288 ft 243 kts 185°
2026-05-04 20:32 39.30893 -77.45449 6976 ft 241 kts 184°
2026-05-04 20:33 39.29206 -77.45466 6668 ft 240 kts 184°
2026-05-04 20:33 39.27550 -77.45490 6355 ft 241 kts 184°
2026-05-04 20:33 39.25976 -77.45492 5958 ft 244 kts 183°
2026-05-04 20:33 39.25360 -77.45492 5818 ft 246 kts 183°
2026-05-04 20:34 39.23658 -77.45510 5404 ft 245 kts 184°
2026-05-04 20:34 39.21963 -77.45539 5085 ft 239 kts 184°
2026-05-04 20:34 39.20308 -77.45558 4808 ft 238 kts 183°
2026-05-04 20:34 39.18709 -77.45592 4476 ft 240 kts 184°
2026-05-04 20:35 39.17041 -77.45609 4142 ft 235 kts 183°
2026-05-04 20:35 39.15442 -77.45644 3838 ft 225 kts 183°
2026-05-04 20:35 39.13933 -77.45655 3547 ft 206 kts 184°
2026-05-04 20:35 39.12600 -77.45673 3291 ft 178 kts 184°
2026-05-04 20:36 39.11423 -77.45700 3085 ft 163 kts 184°
2026-05-04 20:36 39.10305 -77.45712 2847 ft 155 kts 184°
2026-05-04 20:36 39.09242 -77.45739 2681 ft 158 kts 184°
2026-05-04 20:36 39.08147 -77.45740 2437 ft 153 kts 183°
2026-05-04 20:37 39.07079 -77.45776 2236 ft 154 kts 184°
2026-05-04 20:37 39.06019 -77.45763 2033 ft 151 kts 183°
2026-05-04 20:37 39.04973 -77.45817 1839 ft 150 kts 185°
2026-05-04 20:37 39.03931 -77.45808 1647 ft 153 kts 183°
2026-05-04 20:38 39.02874 -77.45842 1425 ft 150 kts 185°
2026-05-04 20:38 39.01834 -77.45842 1227 ft 148 kts 183°
2026-05-04 20:38 39.00822 -77.45880 1027 ft 150 kts 183°
2026-05-04 20:38 38.99762 -77.45883 827 ft 154 kts 182°
2026-05-04 20:39 38.98709 -77.45907 634 ft 153 kts 184°
2026-05-04 20:39 38.97641 -77.45914 421 ft 157 kts 184°
2026-05-04 20:39 38.96537 -77.45962 308 ft 151 kts 186°
2026-05-04 20:39 38.95619 -77.45979 298 ft 105 kts 177°
2026-05-04 20:40 38.95098 -77.45956 299 ft 32 kts 165°
2026-05-04 20:40 38.94922 -77.45855 297 ft 24 kts 148°
2026-05-04 20:40 38.94862 -77.45810 298 ft 2 kts 149°
2026-05-04 20:40 38.94818 -77.45775 300 ft 12 kts 148°
2026-05-04 20:41 38.94759 -77.45665 301 ft 18 kts 100°
2026-05-04 20:41 38.94735 -77.45491 298 ft 22 kts 99°
2026-05-04 20:41 38.94727 -77.45340 301 ft 13 kts 89°
2026-05-04 20:41 38.94730 -77.45193 299 ft 19 kts 88°
2026-05-04 20:42 38.94732 -77.45037 297 ft 15 kts 86°
2026-05-04 20:42 38.94772 -77.44960 302 ft 11 kts 18°
2026-05-04 20:42 38.94799 -77.44952 299 ft 5 kts 11°
2026-05-04 20:42 38.94804 -77.44951 300 ft 0 kts 10°
2026-05-04 20:44 38.97281 -77.45923 357 ft 158 kts 185°
2026-05-04 20:44 38.96901 -77.45940 306 ft 156 kts 186°
2026-05-04 20:45 38.96016 -77.45979 293 ft 131 kts 180°
2026-05-04 20:45 38.95288 -77.45970 295 ft 76 kts 179°